Racecast

64th Mt. SAC Cross Country Invitational (Saturday)

Mt. San Antonio College · 4715m · Girls · Team Sweeps D1/D2 Red · 2011-10-22 · CA

Course difficulty: +0.129

Race-day weather: 70°F · wind 8 mph · humidity 44%

View full meet →

Team scores

Place Team Points 12345 67
1 Simi Valley (CA) 55 1 6 11 15 23 39 73
2 La Costa Canyon (CA) 105 4 7 17 22 56 67 104
3 Xavier College Preparatory (AZ) 112 2 14 28 33 35 46 50
4 Great Oak (CA) 113 5 13 16 38 40 41 45
5 Tesoro (CA) 191 21 29 34 52 54 94 101
6 Trabuco Hills (CA) 226 18 37 51 55 65 85 109
7 Mira Costa (CA) 237 10 30 61 66 70 87 88
8 Thousand Oaks (CA) 248 42 43 48 57 58 71 82
9 Dana Hills (CA) 254 12 19 53 74 96 97
10 Arcadia (CA) 271 20 31 62 72 86 92 93
11 Torrey Pines (CA) 273 8 49 59 78 80 90 91
12 Desert Vista (AZ) 277 26 27 69 76 79 98 103
13 Foothill (Santa Ana) (CA) 278 36 44 60 64 75 77 89
14 Rancho Bernardo (CA) 282 24 25 68 81 84 108
15 Harvard-Westlake (CA) 311 3 32 83 95 99 100
16 Amador Valley (CA) 327 9 47 63 102 105 106 107

As scored by the meet.

Results

Place Athlete Grade School Time Rating Points
1 Sarah Baxter 10 Simi Valley (CA) 1 16:59 SR 163.8 1
2 Sarah Fakler 11 Xavier College Preparatory (AZ) 1 17:31 SR 158.8 2
3 Camille (Cami) Chapus 12 Harvard-Westlake (CA) 1 17:45 SR 156.7 3
4 Shanoah Souza 12 La Costa Canyon (CA) 1 17:48 PR 156.3 4
5 Pauline Mandel 12 Great Oak (CA) 1 17:56 SR 155.1 5
6 Karla Vernola 12 Simi Valley (CA) 2 17:56 PR 155.1 6
7 Emma Abrahamson 10 La Costa Canyon (CA) 2 17:58 SR 154.8 7
8 Ashlyn Dadkhah 12 Torrey Pines (CA) 1 17:59 SR 154.7 8
9 Jena Pianin 11 Amador Valley (CA) 1 18:00 PR 154.6 9
10 Kelli Sugimoto 12 Mira Costa (CA) 1 18:02 SR 154.3 10
11 Rachel Vinas 11 Simi Valley (CA) 3 18:07 PR 153.6 11
12 Sheridan Gomez 12 Dana Hills (CA) 1 18:09 SR 153.3 12
13 Maiya Larsen 9 Great Oak (CA) 2 18:11 PR 153.0 13
14 Laura Orlie 12 Xavier College Preparatory (AZ) 2 18:12 PR 152.9 14
15 Erika Barr 12 Simi Valley (CA) 4 18:14 SR 152.6 15
16 Ashley Helbig 10 Great Oak (CA) 3 18:15 SR 152.4 16
17 Rebekah Bosler 10 La Costa Canyon (CA) 3 18:16 PR 152.3 17
18 Cassandra Smith 12 Trabuco Hills (CA) 1 18:18 PR 152.0 18
19 Paige Canterbury 11 Dana Hills (CA) 2 18:19 PR 151.9 19
20 Roni (Veronica) Yamane 10 Arcadia (CA) 1 18:21 PR 151.6 20
21 Emily Scharmann 11 Tesoro (CA) 1 18:25 SR 151.1 21
22 Kelly Lawson 11 La Costa Canyon (CA) 4 18:25 SR 151.1 22
23 Sarah Riggs 9 Simi Valley (CA) 5 18:26 PR 150.9 23
24 Lauren Voyles 10 Rancho Bernardo (CA) 1 18:27 PR 150.8 24
25 Danielle Voyles 10 Rancho Bernardo (CA) 2 18:27 PR 150.8 25
26 Brittany Tretbar 11 Desert Vista (AZ) 1 18:32 PR 150.1 26
27 Jenna Maack 11 Desert Vista (AZ) 2 18:33 PR 150.0 27
28 Lauren Kinzle 9 Xavier College Preparatory (AZ) 3 18:34 PR 149.8 28
29 Stephanie Lapidus 11 Tesoro (CA) 2 18:34 SR 149.8 29
30 Jenna Tong 12 Mira Costa (CA) 2 18:37 PR 149.4 30
31 Alejandra Quintero 12 Arcadia (CA) 2 18:38 PR 149.3 31
32 Amy Weissenbach 12 Harvard-Westlake (CA) 2 18:41 SR 148.9 32
33 Samantha Mattice 10 Xavier College Preparatory (AZ) 4 18:42 PR 148.8 33
34 Ashley Elliott 11 Tesoro (CA) 3 18:43 PR 148.6 34
35 McKenna Gaffney 11 Xavier College Preparatory (AZ) 5 18:44 SR 148.5 35
36 Alison Mattias 10 Foothill (Santa Ana) (CA) 1 18:45 SR 148.4 36
37 Dominique Regalado 10 Trabuco Hills (CA) 2 18:45 PR 148.4 37
38 Kim Mcnamee 11 Great Oak (CA) 4 18:47 PR 148.1 38
39 Desirae Jones 9 Simi Valley (CA) 6 18:49 PR 147.8 39
40 Miranda Kewley 11 Great Oak (CA) 5 18:57 PR 146.8 40
41 Alexis Messerly 11 Great Oak (CA) 6 18:59 SR 146.6 41
42 Kalin Padberg 12 Thousand Oaks (CA) 1 18:59 PR 146.6 42
43 Ashton Padberg 12 Thousand Oaks (CA) 2 19:01 PR 146.3 43
44 Jessica Cushing-murray 10 Foothill (Santa Ana) (CA) 2 19:01 SR 146.3 44
45 Taylor Maggiacomo 12 Great Oak (CA) 7 19:03 PR 146.0 45
46 Jessica Molloy 9 Xavier College Preparatory (AZ) 6 19:05 PR 145.8 46
47 Kelly Parsons 12 Amador Valley (CA) 2 19:06 PR 145.7 47
48 Genevieve Johnson 11 Thousand Oaks (CA) 3 19:06 PR 145.7 48
49 Marina Kemper 10 Torrey Pines (CA) 2 19:08 SR 145.4 49
50 Breanna Perrone 12 Xavier College Preparatory (AZ) 7 19:09 SR 145.3 50
51 Kora Johnson 12 Trabuco Hills (CA) 3 19:10 SR 145.2 51
52 Sarah Parsons 11 Tesoro (CA) 4 19:11 PR 145.0 52
53 Kayla White 12 Dana Hills (CA) 3 19:12 SR 144.9 53
54 Erica Liem 10 Tesoro (CA) 5 19:14 SR 144.7 54
55 Kathryn Bishop 10 Trabuco Hills (CA) 4 19:15 SR 144.5 55
56 Ellie Abrahamson 11 La Costa Canyon (CA) 5 19:16 SR 144.4 56
57 Melanie Joerger 12 Thousand Oaks (CA) 4 19:18 SR 144.2 57
58 Caitlin Turner 12 Thousand Oaks (CA) 5 19:19 SR 144.0 58
59 Kelsey O'Connell 11 Torrey Pines (CA) 3 19:21 PR 143.8 59
60 Jacquie Adams 11 Foothill (Santa Ana) (CA) 3 19:22 SR 143.7 60
61 Abby Hong 10 Mira Costa (CA) 3 19:23 PR 143.5 61
62 Glindyll Mancia 11 Arcadia (CA) 3 19:24 SR 143.4 62
63 Maddie Quinn 12 Amador Valley (CA) 3 19:25 PR 143.3 63
64 Audrey Wilcox 11 Foothill (Santa Ana) (CA) 4 19:25 SR 143.3 64
65 Melanie Driessen 12 Trabuco Hills (CA) 5 19:30 SR 142.7 65
66 Vivien Cherrette 12 Mira Costa (CA) 4 19:32 SR 142.4 66
67 Julie Steigerwald 10 La Costa Canyon (CA) 6 19:35 PR 142.1 67
68 Tina Girolamo 11 Rancho Bernardo (CA) 3 19:36 SR 141.9 68
69 Natalie Krafft 11 Desert Vista (AZ) 3 19:37 PR 141.8 69
70 Sara Locke-Henderson 11 Mira Costa (CA) 5 19:39 PR 141.6 70
71 Rachel Smiley 11 Thousand Oaks (CA) 6 19:40 SR 141.5 71
72 Joyce Liao 12 Arcadia (CA) 4 19:43 PR 141.1 72
73 Madelyn Vorgitch 10 Simi Valley (CA) 7 19:44 SR 141.0 73
74 Whitney Marsh 11 Dana Hills (CA) 4 19:46 PR 140.8 74
75 Jessica Selby 11 Foothill (Santa Ana) (CA) 5 19:47 PR 140.6 75
76 Danielle Jones 9 Desert Vista (AZ) 4 19:47 PR 140.6 76
77 Hannah Stemper 9 Foothill (Santa Ana) (CA) 6 19:48 PR 140.5 77
78 Marissa Platt 9 Torrey Pines (CA) 4 19:53 PR 139.9 78
79 ReyAnn Rivera 12 Desert Vista (AZ) 5 19:54 PR 139.8 79
80 Taylor Seamans 9 Torrey Pines (CA) 5 19:54 PR 139.8 80
81 Bryanna Fuller 9 Rancho Bernardo (CA) 4 19:55 PR 139.7 81
82 Kori Groenveld 10 Thousand Oaks (CA) 7 19:56 PR 139.6 82
83 Elle Wilson 11 Harvard-Westlake (CA) 3 19:56 PR 139.6 83
84 Alyssa Kuck 9 Rancho Bernardo (CA) 5 19:58 PR 139.3 84
85 Rachel Wilson 10 Trabuco Hills (CA) 6 20:01 PR 139.0 85
86 Naomi Wilcox 12 Arcadia (CA) 5 20:03 SR 138.8 86
87 Lauren Inouye 11 Mira Costa (CA) 6 20:05 PR 138.5 87
88 Christine Inouye 12 Mira Costa (CA) 7 20:08 PR 138.2 88
89 Cori Stemper 11 Foothill (Santa Ana) (CA) 7 20:08 SR 138.2 89
90 Danielle Lyle 10 Torrey Pines (CA) 6 20:09 SR 138.1 90
91 Nicolette Sorensen 11 Torrey Pines (CA) 7 20:09 PR 138.1 91
92 Alyson Watkins 11 Arcadia (CA) 6 20:13 PR 137.6 92
93 Meghan Kamae 10 Arcadia (CA) 7 20:18 PR 137.1 93
94 Kelsey Hicks 11 Tesoro (CA) 6 20:19 SR 136.9 94
95 Monica Nimmagadda 10 Harvard-Westlake (CA) 4 20:28 PR 135.9 95
96 Isabella Dalton 11 Dana Hills (CA) 5 20:36 PR 135.1 96
97 Christina Debowski 11 Dana Hills (CA) 6 20:37 PR 134.9 97
98 Lauren Owens 10 Desert Vista (AZ) 6 20:38 PR 134.8 98
99 Yasmin Moreno 11 Harvard-Westlake (CA) 5 20:46 SR 134.0 99
100 Caitlin Yee 11 Harvard-Westlake (CA) 6 20:51 SR 133.4 100
101 Kaitlyn Cook 9 Tesoro (CA) 7 20:55 PR 133.0 101
102 Katie Girvan 12 Amador Valley (CA) 4 20:55 PR 133.0 102
103 Nicole Hicks 10 Desert Vista (AZ) 7 20:58 PR 132.7 103
104 Alex Fromme 10 La Costa Canyon (CA) 7 21:07 PR 131.8 104
105 Paige Lommerin 12 Amador Valley (CA) 5 21:19 PR 130.5 105
106 Stephanie Duret 10 Amador Valley (CA) 6 21:55 PR 126.9 106
107 Nina Razavi 11 Amador Valley (CA) 7 21:58 PR 126.7 107
108 Jensen Bogan 11 Rancho Bernardo (CA) 6 22:01 SR 126.4 108
109 Alex Reich 12 Trabuco Hills (CA) 7 23:42 PR 117.4 109
Something wrong on this page? Report it →